Regional Weather Roundup
Issued by NWS

Home | Current Version | Previous Version | Text Only | Print | Product List | Glossary On
Versions: 1 2 3 4 5 6 7 8 9 10 11 12 13 14 15 16 17 18 19 20 21 22 23 24 25 26 27 28 29 30 31 32 33 34 35 36 37 38 39 40 41 42 43 44 45 46 47 48 49 50
000
ASUS45 KPSR 280910
RWRAZ

ARIZONA REGIONAL HOURLY WEATHER ROUNDUP
NATIONAL WEATHER SERVICE PHOENIX AZ
200 AM MST FRI NOV 28 2014

NOTE: FAIR INDICATES FEW OR NO CLOUDS BELOW 12,000 FEET WITH NO
SIGNIFICANT WEATHER AND/OR OBSTRUCTIONS TO VISIBILITY.

AZZ001>003-036-281000-
NORTHWEST ARIZONA

CITY           SKY/WX    TMP DP  RH WIND       PRES   REMARKS
BULLHEAD CITY  CLEAR     55  32  41 NE5       30.10S
KINGMAN        CLEAR     38  13  35 SW3       30.16F
$$

AZZ004>008-015-016-018-281000-
NORTH CENTRAL ARIZONA

CITY           SKY/WX    TMP DP  RH WIND       PRES   REMARKS
GRAND CANYON   PTCLDY    18   3  52 CALM      30.32S
PRESCOTT       PTCLDY    37  16  42 S6        30.25F WCI  32
FLAGSTAFF      PTCLDY    26  10  50 CALM      30.33F
PAYSON         CLEAR     48  18  29 CALM      30.29S
PAGE           MOCLDY    39  17  41 CALM      30.25F
$$

AZZ009>014-017-281000-
NORTHEAST ARIZONA

CITY           SKY/WX    TMP DP  RH WIND       PRES   REMARKS
WINSLOW        MOCLDY    27  12  53 E3        30.28F
SAINT JOHNS    MOCLDY    31  16  54 CALM      30.29S
SHOW LOW       MOCLDY    39  16  38 S12       30.32F WCI  32
$$

AZZ023-281000-
GREATER PHOENIX AREA

CITY           SKY/WX    TMP DP  RH WIND       PRES   REMARKS
PHOENIX        CLEAR     57  30  35 CALM      30.05F
BUCKEYE          N/A     46  18  31 N8        30.06S
LUKE AFB       CLEAR     49  27  42 N7        30.06S
DEER VALLEY    CLEAR     59  19  21 N6        30.07S
SCOTTSDALE     CLEAR     54  27  35 CALM      30.08S
MESA-GATEWAY   CLEAR     46  25  42 SE6       30.09F
$$

AZZ027-028-281000-
SOUTHWEST MARICOPA COUNTY AND PINAL COUNTY

CITY           SKY/WX    TMP DP  RH WIND       PRES   REMARKS
CASA GRANDE    CLEAR     54  19  26 CALM      30.08S
$$

AZZ503-504-507>509-281000-
SOUTHEAST ARIZONA

CITY           SKY/WX    TMP DP  RH WIND       PRES   REMARKS
TUCSON         CLEAR     60  21  22 E6        30.14S
DAVIS-MONTHAN  CLEAR     60  21  22 SE14      30.11F
NOGALES        CLEAR     46  20  35 CALM      30.18F
SIERRA VISTA   PTCLDY    45  19  35 CALM      30.22F
DOUGLAS        PTCLDY    30  17  58 NW3       30.23S
SAFFORD        CLEAR     51  22  31 SE12      30.20F
$$

AZZ020-021-025-026-031-281000-
SOUTHWEST ARIZONA

CITY           SKY/WX    TMP DP  RH WIND       PRES   REMARKS
YUMA           CLEAR     60  25  26 NE6       30.00F
$$

CAZ031-033-041-043-047-048-061-281000-
SOUTHERN CALIFORNIA

CITY           SKY/WX    TMP DP  RH WIND       PRES   REMARKS
DOWNTOWN L.A.  CLEAR     58  38  47 CALM      29.99F
L.A. AIRPORT   CLEAR     60  44  55 CALM      30.00F
SAN DIEGO      CLEAR     59  37  44 CALM      30.01F
BURBANK        CLEAR     56  28  34 CALM      30.01F
ONTARIO        PTCLDY    57  30  35 E3        30.02F
RIVERSIDE      CLEAR     57  28  33 NE6       30.02F
PALM SPRINGS   CLEAR     60  22  23 NW9       30.04F
EL CENTRO NAS  CLEAR     51  25  36 W8        30.01S
IMPERIAL       CLEAR     50  31  48 SW5       30.00F
BLYTHE         CLEAR     54  19  25 NW6       30.04F
NEEDLES        CLEAR     52  20  28 CALM      30.09S
$$

NVZ020-UTZ003-281000-
SOUTHERN NEVADA-UTAH

CITY           SKY/WX    TMP DP  RH WIND       PRES   REMARKS
LAS VEGAS      PTCLDY    47  21  35 S10       30.09F
SALT LAKE CITY MOCLDY    44  25  47 E8        30.07F
$$

NMZ009-TXZ055-281000-
NEW MEXICO-WEST TEXAS

CITY           SKY/WX    TMP DP  RH WIND       PRES   REMARKS
ALBUQUERQUE    MOCLDY    36  19  50 CALM      30.31S
EL PASO        PTCLDY    41  20  43 N6        30.27S
$$


........................KEY........................
SKY/WX - SKY CONDITION/WEATHER
TMP    - TEMPERATURE IN FAHRENHEIT
DP     - DEW POINT IN FAHRENHEIT
RH     - RELATIVE HUMIDITY IN PERCENT
WIND   - DIRECTION AND SPEED IN MILES PER HOUR (MPH)
VRB    - VARIABLE WIND DIRECTION
PRES   - MEAN SEA LEVEL PRESSURE IN INCHES OF MERCURY
         F - FALLING PRESSURE   R - RISING PRESSURE
         S - STEADY PRESSURE
VSB    - VISIBILITY IN MILES
HX     - HEAT INDEX IN FAHRENHEIT
WCI    - WIND CHILL INDEX IN FAHRENHEIT
TC     - TEMPERATURE IN CELSIUS WHICH IS ALSO KNOWN AS
         TEMPERATURE IN CENTIGRADE
AFB    - AIR FORCE BASE
         LUKE AFB IS LUKE AIR FORCE BASE
         DAVIS-MONTHAN IS DAVIS-MONTHAN AIR FORCE BASE
NAS    - NAVAL AIR STATION
         EL CENTRO NAS IS EL CENTRO NAVAL AIR STATION
N/A    - NOT AVAILABLE



USA.gov is the U.S. government's official web portal to all federal, state and local government web resources and services.